Concordia, KS

10:23 PM CDT on October 22, 2019 (GMT -0500)
Blosser Municipal

Weather History for KCNK - June, 2019

Change the Weather History Date:

Monday, June 3, 2019

  Actual Average Record
Temperature  
Mean Temperature 77 °F 69 °F  
Max Temperature 89 °F 80 °F 94 °F (1958)
Min Temperature 65 °F 58 °F 46 °F (1951)
Degree Days  
Heating Degree Days 0 1  
Month to date heating degree days 0 3  
Since 1 June heating degree days 0 3  
Since 1 July heating degree days 5821 5398  
Cooling Degree Days 12 5  
Month to date cooling degree days 28 15  
Year to date cooling degree days 128 104  
Since 1 June cooling degree days 28 15  
Growing Degree Days 26 (Base 50)    
Moisture  
Dew Point 61 °F    
Average Humidity 58    
Maximum Humidity 73    
Minimum Humidity 43    
Precipitation  
Precipitation 0.00 in 0.13 in 1.78 in (1927)
Month to date precipitation 0.00 0.41  
Year to date precipitation 14.59 10.40  
Snow  
Snow 0.00 in 0.00 in T in (1955)
Month to date snowfall 0.0 0.0  
Year to date snowfall 32.3 13.7  
Since 1 July snowfall 48.2 20.2  
Snow Depth 0.00 in    
Sea Level Pressure  
Sea Level Pressure 29.88 in    
Wind  
Wind Speed 13 mph (SSE)    
Max Wind Speed 22 mph    
Max Gust Speed 30 mph    
Visibility 10 miles    
Events      
T = Trace of Precipitation, MM = Missing Value Source: NWS Daily Summary

Daily Weather History Graph

Daily Weather History Graph

Search for Another Location

Airport or City:

Astronomy

Jun. 03, 2019 Rise Set
Actual Time 6:04 AM CDT 8:53 PM CDT
Civil Twilight 5:32 AM CDT 9:25 PM CDT
Nautical Twilight 4:52 AM CDT 10:05 PM CDT
Astronomical Twilight 4:06 AM CDT 10:51 PM CDT
Moon 6:26 AM CDT (6/3) 9:19 PM CDT (6/3)
Length of Visible Light 15h 52m
Length of Day
14h 48m
New Moon, 0% of the Moon is Illuminated
Jun 3
New Moon
Jun 10
First Quarter
Jun 17
Full
Jun 25
Last Quarter
Jul 2
New

Hourly Weather History & Observations

Time (CDT) Temp. Heat Index Dew Point Humidity Pressure Visibility Wind Dir Wind Speed Gust Speed Precip Events Conditions
12:55 AM 66.0 °F - 55.0 °F 68% 29.94 in 10.0 mi SE 11.5 mph - N/A   Clear
1:55 AM 66.9 °F - 55.0 °F 66% 29.94 in 10.0 mi SSE 11.5 mph - N/A   Clear
2:55 AM 68.0 °F - 55.0 °F 63% 29.93 in 10.0 mi SSE 10.4 mph - N/A   Clear
3:55 AM 66.0 °F - 55.9 °F 70% 29.92 in 10.0 mi ESE 6.9 mph - N/A   Clear
4:55 AM 68.0 °F - 57.9 °F 70% 29.90 in 10.0 mi SSE 13.8 mph - N/A   Scattered Clouds
5:55 AM 66.9 °F - 57.9 °F 73% 29.90 in 10.0 mi SSE 16.1 mph - N/A   Clear
6:55 AM 68.0 °F - 57.0 °F 68% 29.92 in 10.0 mi SSE 13.8 mph - N/A   Clear
7:55 AM 69.1 °F - 57.9 °F 68% 29.93 in 10.0 mi SE 11.5 mph - N/A   Mostly Cloudy
8:55 AM 73.0 °F - 60.1 °F 64% 29.92 in 10.0 mi SE 13.8 mph - N/A   Partly Cloudy
9:55 AM 77.0 °F - 63.0 °F 62% 29.94 in 10.0 mi ESE 8.1 mph - N/A   Scattered Clouds
10:55 AM 78.1 °F - 63.0 °F 60% 29.93 in 10.0 mi ESE 11.5 mph - N/A   Clear
11:55 AM 82.0 °F 84.1 °F 66.0 °F 58% 29.92 in 10.0 mi ESE 11.5 mph - N/A   Clear
12:55 PM 84.9 °F 86.1 °F 64.0 °F 49% 29.90 in 10.0 mi SSE 15.0 mph 25.3 mph N/A   Clear
1:55 PM 87.1 °F 87.5 °F 62.1 °F 43% 29.88 in 10.0 mi South 20.7 mph 28.8 mph N/A   Clear
2:55 PM 88.0 °F 88.7 °F 63.0 °F 43% 29.86 in 10.0 mi SSE 16.1 mph 24.2 mph N/A   Partly Cloudy
3:55 PM 88.0 °F 88.7 °F 63.0 °F 43% 29.84 in 10.0 mi SSE 13.8 mph 21.9 mph N/A   Clear
4:55 PM 88.0 °F 88.7 °F 63.0 °F 43% 29.82 in 10.0 mi SSE 12.7 mph 19.6 mph N/A   Clear
5:55 PM 88.0 °F 88.4 °F 62.1 °F 42% 29.80 in 10.0 mi SE 13.8 mph - N/A   Clear
6:55 PM 87.1 °F 87.8 °F 63.0 °F 44% 29.78 in 10.0 mi SSE 15.0 mph - N/A   Clear
7:55 PM 84.0 °F 85.8 °F 64.9 °F 53% 29.79 in 10.0 mi SSE 10.4 mph - N/A   Clear
8:55 PM 80.1 °F 82.1 °F 66.0 °F 62% 29.80 in 10.0 mi SSE 9.2 mph - N/A   Partly Cloudy
9:55 PM 77.0 °F - 66.0 °F 69% 29.81 in 10.0 mi SE 8.1 mph - N/A   Partly Cloudy
10:55 PM 78.1 °F - 66.0 °F 66% 29.83 in 10.0 mi SSE 11.5 mph - N/A   Partly Cloudy
11:55 PM 77.0 °F - 66.9 °F 71% 29.83 in 10.0 mi SSE 15.0 mph - N/A   Clear